Preview of NWS' New Version of Forecast
This preview is not operational and should not be used for support decisions.

Regional Weather Roundup (RWR)

Issued by Philadelphia/Mt Holly (PHI)

                            
000
ASUS41 KPHI 252312
RWRPHI

REGIONAL WEATHER ROUNDUP
NATIONAL WEATHER SERVICE MOUNT HOLLY NJ
700 PM EDT SAT MAY 25 2019

NOTE:  "FAIR" INDICATES FEW OR NO CLOUDS BELOW 12,000 FEET WITH NO
SIGNIFICANT WEATHER AND/OR OBSTRUCTIONS TO VISIBILITY.

 * = STATION DOES NOT REPORT PRECIPITATION (E.G. RAIN, SNOW, ETC.) 
        OR FOG.

NJZ015>026-260000-
SOUTHERN NEW JERSEY
  
CITY           SKY/WX    TMP DP  RH WIND       PRES   REMARKS
POMONA         FAIR      63  53  70 S10       30.15S                  
WILDWOOD*      FAIR      65  55  70 S10       30.15F                  
MILLVILLE      FAIR      65  53  65 S9        30.13S                  
WRIGHTSTOWN    FAIR      67  52  56 S10       30.08F                  
MOUNT HOLLY    FAIR      68  52  56 SE9       30.09F                  
TRENTON        FAIR      69  54  58 S14       30.08F                  

$$
NJZ001>014-260000-
NORTHERN NEW JERSEY
  
CITY           SKY/WX    TMP DP  RH WIND       PRES   REMARKS
SUSSEX         CLOUDY    70  56  61 SW7       30.07F                  
ANDOVER*         N/A     69  54  58 VRB6G17   30.07F                  
MORRISTOWN     MOSUNNY   70  52  52 S9        30.08F                  
NEWARK         PTSUNNY   67  47  48 SE12      30.10S                  
TETERBORO      FAIR      66  47  50 S14       30.09F                  
CALDWELL       FAIR      69  48  47 S12       30.08F                  
SOMERVILLE     FAIR      70  54  56 S10       30.07F                  
ALLAIRE*       FAIR      63  50  62 SE10      30.13S                  
TOMS RIVER*    FAIR      65  52  62 S12       30.14R                  

$$
PAZ043-044-047-054-055-060>062-066>071-260000-
EASTERN PENNSYLVANIA
  
CITY           SKY/WX    TMP DP  RH WIND       PRES   REMARKS
PHILADELPHIA   PTSUNNY   71  54  54 S10       30.10F                  
NORTH PHILA    FAIR      73  54  51 S6        30.10F                  
BLUE BELL*     FAIR      69  55  61 S8        30.09F                  
DOYLESTOWN     FAIR      71  54  54 VRB6      30.07F                  
QUAKERTOWN*    PTSUNNY   70  57  64 S9        30.09                   
PERKASIE*      MOCLDY    68  55  64 SW6       30.09F                  
POTTSTOWN      PTSUNNY   69  56  62 S6        30.10F                  
LANCASTER      FAIR      73  60  63 S9        30.08S                  
COATESVILLE    FAIR      66  55  68 VRB5      30.13R                  
WEST CHESTER   FAIR      68  54  60 S3        30.10F                  
READING        FAIR      71  61  70 S9        30.06F                  
ALLENTOWN      CLOUDY    73  55  53 S8G20     30.06F                  
QN CITY/ALNTWN CLOUDY    70  55  60 SW12      30.08F                  
MOUNT POCONO   CLOUDY    63  54  72 S9G18     30.09F                  
HAZLETON       FAIR      66  55  68 S8G17     30.09F                  
LEHIGHTON      CLOUDY    70  55  60 SW5       30.06F                  
WILKES BARRE   PTSUNNY   70  57  63 S8        30.02F                  

$$
DEZALL-MDZ008-012-015-019-020-260000-
DELAWARE AND EASTERN MARYLAND
  
CITY           SKY/WX    TMP DP  RH WIND       PRES   REMARKS
WILMINGTON     FAIR      66  54  65 S17       30.11F                  
CHESWOLD         N/A     66  55  68 SE12      30.11S                  
GEORGETOWN     FAIR      69  58  67 SE10      30.12F                  
EASTON         PTSUNNY   75  61  60 SE10      30.14R                  
STEVENSVILLE   FAIR      73  64  73 S10G18    30.09R                  
PATUXENT       FAIR      71  66  84 S15       30.09                   
OCEAN CITY     FAIR      65  59  81 SE8       30.13F                  
WALLOPS ISLAND FAIR      69  62  78 SE15      30.13F                  
CAMBRIDGE      SUNNY     73  61  64 SE13      30.09F                  
SALISBURY      FAIR      68  60  75 SE13G18   30.11F                  

$$
PAZ001-021-NYZ056-072-MDZ011-DCZ001-260000-
OTHER NEARBY LOCATIONS
  
CITY           SKY/WX    TMP DP  RH WIND       PRES   REMARKS
HARRISBURG     PTSUNNY   74  61  63 SE10      30.04F                  
STATE COLLEGE  MOSUNNY   73  64  73 S14G20    30.00F                  
WILLIAMSPORT   FAIR      74  58  57 S9G22     29.96F                  
BINGHAMTON     FAIR      68  56  65 S15G22    29.97F                  
NEW YORK CITY  FAIR      63  46  54 MISG      30.14S                  
BALTIMORE      LGT RAIN  73  62  68 SE6       30.08R                  
WASHINGTON DC  PTSUNNY   75  64  68 SE10      30.06R                  

$$